Location: Nag� el Ma?a??a
(24.0667°N, 32.8833°E)
Time: 17:10:59
(UTC+00:00)

Cosmos 1486 Rocket - Pass Details

Date: 25 September 2021
Orbit: 758 x 784 km, 74.1° (Epoch: 16 October)

Event Time Altitude Azimuth Distance (km) Brightness Sun altitude
Rises 02:13:10 0° 350° (N) 3,270 7.2 -20.2°
Reaches altitude 10° 02:15:35 10° 353° (N) 2,340 6.5 -19.6°
Maximum altitude 02:20:51 64° 74° (ENE) 865 4.5 -18.4°
Drops below altitude 10° 02:26:05 10° 156° (SSE) 2,323 6.7 -17.2°
Sets 02:28:29 0° 159° (SSE) 3,245 7.4 -16.7°
